OpenBCM V2.0.3 (Linux)

Packet Radio Mailbox

IZ3LSV

[San Dona' di P. JN]

 Login: GUEST





  
I0OJJ  > KEPS     27.04.26 02:28l 307 Lines 14616 Bytes #32 (0) @ AMSAT
BID : ORB26117.1
Read: GUEST
Subj: 2Line Orbital Elements 26117.AMSAT
Path: IZ3LSV<IK6IHL<IK7NXU<HB9ON<DK0WUE<ZL2BAU<WG3K<WW6Q<W9GM<VE3CGR<VE3TOK<
      IR0AAB<I0OJJ
Sent: 260427/0021z @:I0OJJ.ITA.EU [Rome] obcm1.13-38-g65b7
From: I0OJJ @ I0OJJ.ITA.EU (Gustavo)
To:   KEPS @ AMSAT
X-Info: This message was generated automatically


QST de W1STR

AMSAT Orbital Elements for Amateur Satellites in TLE Format
From Orbital Analysis Office
New England Sci-Tech STEM Education Center
Natick MA April 27, 2026
To all radio amateurs


These element sets describe the orbits of various satellites 
in use by the amateur radio community. For details see:
www.amsat.org/keplerian-elements-formats/

A daily update of element sets is available at:
www.amsat.org/tle/daily-bulletin.txt
or without bulletin text:
www.amsat.org/tle/dailytle.txt


AO-07
1 07530U 74089B   26116.77802770 -.00000026  00000-0  12536-3 0  9996
2 07530 101.9930 129.4844 0011965 228.0304 305.4015 12.53697208354073
UO-11
1 14781U 84021B   26116.80509225  .00001448  00000-0  15340-3 0  9996
2 14781  97.8020  82.9714 0007688   6.0597 354.0712 14.90657676249475
AO-27
1 22825U 93061C   26116.74539435  .00000098  00000-0  54476-4 0  9991
2 22825  98.6904 184.1707 0007324 248.1287 111.9117 14.30927892699643
FO-29
1 24278U 96046B   26116.55564596  .00000008  00000-0  46245-4 0  9992
2 24278  98.5302 332.4819 0349048 230.3208 126.6666 13.53271655466184
GO-32
1 25397U 98043D   26116.85706312  .00000065  00000-0  48141-4 0  9991
2 25397  99.0062 108.3254 0001758  42.3066 317.8248 14.24417863444026
ISS
1 25544U 98067A   26116.65160326  .00008927  00000-0  17009-3 0  9991
2 25544  51.6320 195.1803 0007009 353.7259   6.3640 15.48972814563761
NO-44
1 26931U 01043C   26116.82258547  .00000116  00000-0  74273-4 0  9991
2 26931  67.0527  17.1229 0006502 263.9783  96.0578 14.31935450283095
SO-50
1 27607U 02058C   26116.83731361  .00001136  00000-0  15127-3 0  9995
2 27607  64.5515 287.8458 0075592 271.8075  87.4374 14.82930098256842
CO-55
1 27844U 03031E   26116.75556575  .00000331  00000-0  16208-3 0  9990
2 27844  98.6757 125.9591 0009078 342.2770  17.8091 14.24302739184352
RS-22
1 27939U 03042A   26116.88094907  .00001125  00000-0  18182-3 0  9992
2 27939  98.3472 299.7940 0012518  73.2372  34.2761 14.73372395207990
CO-65
1 32785U 08021C   26116.86476890  .00006465  00000-0  41321-3 0  9995
2 32785  97.8255  97.2453 0008384 190.9806 169.1240 15.08956703977458
CO-66
1 32791U 08021J   26116.72639418  .00022770  00000-0  76219-3 0  9995
2 32791  97.7529 112.2424 0004971 114.0529 246.1231 15.30959981979411
RS-30
1 32953U 08025A   26116.83391910  .00000013  00000-0  19761-4 0  9999
2 32953  82.5072  27.3791 0020634  63.9170 296.4031 12.43177755813311
SRMSAT
1 37841U 11058D   26116.82887624  .00000422  00000-0  85256-4 0  9997
2 37841  19.9735  10.3299 0011674 359.3388  61.7748 14.11563225750556
ZACUBE-1
1 39417U 13066B   26116.87586218  .00005604  00000-0  43768-3 0  9997
2 39417  97.8120  78.9374 0044121  64.7219 295.8566 15.00754252673033
Delfi-N3xt
1 39428U 13066N   26116.76741679  .00011196  00000-0  98571-3 0  9996
2 39428  97.8341  37.1490 0076128  19.0586 341.3454 14.94417028666942
GOMX-1
1 39430U 13066Q   26116.83926581  .00001524  00000-0  23607-3 0  9996
2 39430  97.6529 320.5357 0127605 242.2211 116.6011 14.69261785662378
LO-74
1 39440U 13066AA  26116.81155963  .00004429  00000-0  41417-3 0  9999
2 39440  97.8872  65.6004 0057390 196.1145 163.8251 14.93396714669324
AO-73
1 39444U 13066AE  26116.86959253  .00010608  00000-0  66839-3 0  9993
2 39444  97.8240  87.2818 0037414  21.1117 339.1645 15.08754845671925
DTUSAT-2
1 40030U 14033W   26116.70924836  .00009503  00000-0  52197-3 0  9997
2 40030  98.0867 111.1993 0009501  58.7206 301.4953 15.14318624644896
LILACSAT-2
1 40908U 15049K   26116.83813236  .00021596  00000-0  38963-3 0  9995
2 40908  97.4731 151.7755 0008839  84.3425 275.8833 15.49734152587792
Horyu-4
1 41340U 16012D   26116.08175857  .00156027  00000-0  10702-2 0  9992
2 41340  30.9890  94.0515 0006292 242.7462 117.2553 15.73116090562553
Lapan A3
1 41603U 16040E   26116.88359735  .00003966  00000-0  12756-3 0  9997
2 41603  97.1489 114.7307 0009881 188.6426 171.4648 15.32764439546952
CAS-2T
1 41847U 16066G   26116.84627376  .00000614  00000-0  96566-4 0  9999
2 41847  98.3831 193.1613 0340958 285.4039  70.9731 14.44567950497385
TechnoSat
1 42829U 17042E   26116.71463762  .00004279  00000-0  30784-3 0  9998
2 42829  97.4231 276.3599 0016356 269.3070  90.6282 15.04638314478968
AO-91
1 43017U 17073E   26116.06673384  .00010507  00000-0  46442-3 0  9992
2 43017  97.4782 344.3695 0154055 148.0001 213.0700 15.11750407457518
S-Net D
1 43186U 18014G   26116.86029301  .00005461  00000-0  28619-3 0  9996
2 43186  97.5402  21.9808 0007963 183.6496 176.4680 15.16179721450989
S-Net B
1 43187U 18014H   26116.73874950  .00006509  00000-0  34061-3 0  9993
2 43187  97.5405  21.8452 0008715 180.5493 179.5731 15.16150520450961
S-Net A
1 43188U 18014J   26116.72742449  .00006078  00000-0  31797-3 0  9994
2 43188  97.5417  22.0332 0008565 181.1364 178.9850 15.16186351450968
S-Net C
1 43189U 18014K   26116.74234072  .00006498  00000-0  34001-3 0  9992
2 43189  97.5433  22.1146 0010197 175.5693 184.5632 15.16141683449516
Ten-Koh
1 43677U 18084G   26116.78840899  .00002783  00000-0  21323-3 0  9991
2 43677  98.0801 306.9922 0007676 294.3526  65.6896 15.02720186408445
PO-101
1 43678U 18084H   26116.81585819  .00002736  00000-0  22381-3 0  9997
2 43678  98.1069 310.8381 0013232 346.1105  13.9751 15.00193803408512
QO-100
1 43700U 18090A   26116.57043110  .00000132  00000-0  00000+0 0  9994
2 43700   0.0402  76.1329 0001354 345.0735  24.5116  1.00274610 27155
MinXSS-2
1 43758U 18099A   26116.73689036  .00039379  00000-0  87500-3 0  9996
2 43758  97.4560 191.6464 0009062  97.7941 262.4336 15.43538468406187
AO-95
1 43770U 18099N   26116.67288436  .00013884  00000-0  54861-3 0  9999
2 43770  97.4424 177.1444 0009715 160.5645 199.5966 15.25572159405365
SNUSat 2
1 43782U 18099AA  26116.70403455  .00010867  00000-0  49158-3 0  9997
2 43782  97.4107 170.8986 0012085 114.5938 245.6558 15.21024254405202
SnugLite
1 43784U 18099AC  26116.68883720  .00014862  00000-0  57954-3 0  9995
2 43784  97.3918 171.5088 0004615 109.0380 251.1359 15.26029865405461
ITASat 1
1 43786U 18099AE  26116.69533260  .00008752  00000-0  42796-3 0  9998
2 43786  97.4080 169.2488 0013367 165.7366 194.4248 15.18376536405095
EAGLET 1
1 43790U 18099AJ  26116.59003215  .00004628  00000-0  26883-3 0  9991
2 43790  97.4284 167.6286 0011981 156.6204 203.5574 15.12534349404538
ESEO
1 43792U 18099AL  26116.82373875  .00001138  00000-0  86219-4 0  9994
2 43792  97.4023 156.4054 0013276 141.3129 218.9051 15.04085998404088
JO-97
1 43803U 18099AX  26116.71875995  .00020895  00000-0  67729-3 0  9990
2 43803  97.4173 179.4308 0007434  97.7748 262.4337 15.31994910405742
Suomi 100
1 43804U 18099AY  26116.72677102  .00014808  00000-0  55613-3 0  9998
2 43804  97.4232 177.3484 0011824 103.1450 257.1109 15.27225747405569
ISAT
1 43879U 18111D   26116.75126171  .00079771  00000-0  10831-2 0  9995
2 43879  97.5901  48.3595 0008684 114.0943 246.1221 15.57319624403149
UWE-4
1 43880U 18111E   26116.77350249  .00036873  00000-0  83449-3 0  9996
2 43880  97.5856  42.9263 0009910 136.2962 223.9071 15.42997280402848
Sparrow
1 43881U 18111F   26116.75656590  .00106707  00000-0  11749-2 0  9990
2 43881  97.6119  53.2416 0006732 128.6813 231.5047 15.62762698403312
Prox-1
1 44339U 19036A   26116.62390522  .00017101  00000-0  17275-2 0  9991
2 44339  23.9947  98.3473 0006763 155.1735 204.9091 14.89350551365776
Taurus 1
1 44530U 19059C   26116.77889132  .00009223  00000-0  14920-2 0  9995
2 44530  98.6374 278.4533 0009873 113.9859 246.2381 14.71514627351081
TO-108
1 44881U 19093C   26116.81826743  .00000948  00000-0  11325-3 0  9998
2 44881  97.7542 190.3007 0012120 254.8512 105.1363 14.86432544343789
RS-44
1 44909U 19096E   26116.79640918  .00000001  00000-0 -32327-4 0  9994
2 44909  82.5260  13.8554 0216361 264.5465  93.0923 12.79747955295770
SALSAT
1 46495U 20068K   26116.45847697  .00009547  00000-0  34104-3 0  9990
2 46495  97.8864 116.4064 0011542 119.6725 240.5665 15.29015639307456
CSS (TIANHE-1)
1 48274U 21035A   26116.80095385  .00032716  00000-0  35185-3 0  9994
2 48274  41.4670 274.9071 0006843 279.6216  80.3850 15.63016874285137
CUTE
1 49263U 21088D   26116.84563022  .00083215  00000-0  56799-3 0  9997
2 49263  97.4184 212.0158 0001524 156.8184 203.3149 15.74584180254436
TeikyoSat 4
1 49396U 21102B   26116.80996058  .00001831  00000-0  11841-3 0  9999
2 49396  97.3719 148.2861 0013717 107.9991 252.2735 15.09319982244973
Z-Sat
1 49399U 21102E   26116.84980153  .00004932  00000-0  24576-3 0  9999
2 49399  97.3378 153.7340 0018364  69.0603 291.2594 15.17859620245650
KOSEN 1
1 49402U 21102H   26116.68252508  .00009156  00000-0  35654-3 0  9994
2 49402  97.3243 159.8550 0014631  36.7862 323.4377 15.26108798246164
HO-113
1 50466U 21131B   26116.82232188  .00000462  00000-0  15665-3 0  9997
2 50466  98.4945 209.4984 0002960 244.9863 115.1018 14.41305902227716
SNUGLITE 2
1 52899U 22065F   26116.84973054  .00001072  00000-0  21263-3 0  9991
2 52899  98.2129 261.7946 0007617 175.4785 184.6487 14.64246495203489
UmKA 1 (RS40S)
1 57172U 23091G   26116.82839911  .00006645  00000-0  30917-3 0  9998
2 57172  97.5095 175.7357 0011302 302.0503  57.9634 15.20228674156209
CubeBel-2 (EU11S)
1 57175U 23091K   26116.85963530  .00014057  00000-0  51729-3 0  9999
2 57175  97.5091 179.6578 0008455 298.9909  61.0482 15.27945816156460
RS-38S
1 57189U 23091Z   26116.85008220  .00017737  00000-0  53411-3 0  9998
2 57189  97.5122 185.3657 0006205 244.6938 115.3662 15.34391128156814
